Weather History for Ishigakijima, Japan

Change the Weather History Date:

Monday, September 23, 2013

  Actual Average Record
Temperature  
Mean Temperature 84 °F -  
Max Temperature 90 °F 81 °F 90 °F (2013)
Min Temperature 78 °F 74 °F 71 °F (1997)
Cooling Degree Days 18    
Growing Degree Days 34 (Base 50)    
Moisture  
Dew Point 75 °F    
Average Humidity 75    
Maximum Humidity 91    
Minimum Humidity 55    
Precipitation  
Precipitation 0.12 in - - ()
Sea Level Pressure  
Sea Level Pressure 29.74 in    
Wind  
Wind Speed 12 mph ()    
Max Wind Speed 17 mph    
Max Gust Speed -    
Visibility 6.6 miles    
Events Rain    
Averages and records for this station are not official NWS values.
T = Trace of Precipitation, MM = Missing Value Source: Averaged Metar Reports

Daily Weather History Graph

Daily Weather History Graph

Search for Another Location

Airport:

Trip Planner

Search our weather history database for the weather conditions in past years. The results will help you decide how hot, cold, wet, or windy it might be!

Date:

Astronomy

Sep. 23, 2013 Rise Set
Actual Time 6:32 AM JST 6:38 PM JST
Civil Twilight 6:09 AM JST 7:01 PM JST
Nautical Twilight 5:43 AM JST 7:28 PM JST
Astronomical Twilight 5:16 AM JST 7:54 PM JST
Moon 9:13 PM JST (9/23) 9:50 AM JST (9/23)
Length of Visible Light 12h 52m
Length of Day
12h 06m
Waning Gibbous, 85% of the Moon is Illuminated
Sep 23
Waning Gibbous
Sep 27
Last Quarter
Oct 5
New
Oct 12
First Quarter
Oct 19
Full

Hourly Weather History & Observations

Time (JST) Temp. Heat Index Dew Point Humidity Pressure Visibility Wind Dir Wind Speed Gust Speed Precip Events Conditions
12:00 AM 84 °F - 79 °F 81% 29.75 in - East 13.8 mph - -  
3:00 AM 81 °F - 78 °F 87% 29.73 in 6 mi ESE 11.5 mph - - Rain Light Rain Showers
6:00 AM 80 °F - 78 °F 91% 29.74 in 6 mi ESE 12.7 mph - -   Partly Cloudy
6:00 AM 80.6 °F 85.4 °F 73.4 °F 79% 29.71 in 6.2 mi ESE 11.5 mph - N/A   Scattered Clouds
7:00 AM 82.4 °F 89.5 °F 75.2 °F 79% 29.71 in 6.2 mi East 13.8 mph - N/A   Partly Cloudy
8:00 AM 82.4 °F 89.5 °F 75.2 °F 79% 29.74 in 6.2 mi East 16.1 mph - N/A   Partly Cloudy
9:00 AM 85 °F - 75 °F 66% 29.77 in 6 mi East 17.3 mph - -   Partly Cloudy
9:00 AM 84.2 °F 90.9 °F 73.4 °F 70% 29.74 in 6.2 mi East 15.0 mph - N/A   Partly Cloudy
10:00 AM 86.0 °F 93.4 °F 73.4 °F 66% 29.74 in 6.2 mi East 17.3 mph - N/A   Partly Cloudy
11:00 AM 86.0 °F 93.4 °F 73.4 °F 66% 29.74 in 6.2 mi East 15.0 mph - N/A   Scattered Clouds
12:00 PM 89 °F - 75 °F 55% 29.77 in 9 mi East 17.3 mph - -   Scattered Clouds
12:00 PM 86.0 °F 93.4 °F 73.4 °F 66% 29.74 in 6.2 mi East 13.8 mph - N/A   Partly Cloudy
1:00 PM 87.8 °F 95.6 °F 73.4 °F 62% 29.74 in 6.2 mi East 13.8 mph - N/A   Partly Cloudy
2:00 PM 86.0 °F 95.1 °F 75.2 °F 70% 29.74 in 6.2 mi ENE 11.5 mph - N/A   Partly Cloudy
3:00 PM 83 °F - 76 °F 75% 29.75 in 9 mi SE 12.7 mph - - Rain Light Rain Showers
3:00 PM 84.2 °F 90.9 °F 73.4 °F 70% 29.74 in 6.2 mi East 11.5 mph - N/A   Partly Cloudy
3:16 PM 80.6 °F 86.2 °F 75.2 °F 84% 29.74 in 6.2 mi East 15.0 mph - N/A Rain Rain Showers
3:25 PM 78.8 °F - 75.2 °F 89% 29.74 in 6.2 mi ESE 11.5 mph - N/A Rain Light Rain Showers
4:00 PM 80.6 °F 86.2 °F 75.2 °F 84% 29.74 in 6.2 mi SE 8.1 mph - N/A   Mostly Cloudy
5:00 PM 82.4 °F 89.5 °F 75.2 °F 79% 29.74 in 6.2 mi East 6.9 mph - N/A   Mostly Cloudy
6:00 PM 83 °F - 77 °F 78% 29.75 in 9 mi East 8.1 mph - -   Partly Cloudy
6:00 PM 82.4 °F 88.2 °F 73.4 °F 74% 29.74 in 6.2 mi East 13.8 mph - N/A   Scattered Clouds
7:00 PM 82.4 °F 88.2 °F 73.4 °F 74% 29.74 in 6.2 mi East 15.0 mph - N/A   Partly Cloudy
8:00 PM 82.4 °F 88.2 °F 73.4 °F 74% 29.74 in 6.2 mi ENE 15.0 mph - N/A   Scattered Clouds
9:00 PM 82 °F - 74 °F 71% 29.79 in 9 mi ENE 12.7 mph - -   Partly Cloudy